NWS Melbourne » East Central Florida Hourly Weather Roundup

 

ASUS42 KMLB 061512
RWRMLB
HOURLY WEATHER ROUNDUP AROUND FLORIDA
NATIONAL WEATHER SERVICE OFFICE MELBOURNE FL
1100 AM EDT MON JUL 06 2015
  
CITY           SKY/WX    TMP DP  RH WIND       PRES   REMARKS
MELBOURNE      MOSUNNY   84  65  52 VRB3      30.19S                  
FORT PIERCE    PTSUNNY   85  73  67 E3        30.19R                  
ORLANDO INTL   MOSUNNY   85  71  63 SW5       30.19S                  
DAYTONA BEACH  MOSUNNY   83  71  67 NW6       30.20S                  
VERO BEACH     PTSUNNY   87  69  54 SE5       30.19S                  
$$
...ELSEWHERE ACROSS CENTRAL FLORIDA...
  
CITY           SKY/WX    TMP DP  RH WIND       PRES   REMARKS
PATRICK AFB    MOSUNNY   84  67  56 VRB2      30.19S                  
KSC            MOSUNNY   82  70  66 VRB1      30.18F                  
CAPE CANAVERAL MOSUNNY   83  73  72 VRB2      30.18F                  
TITUSVILLE     MOSUNNY   84  72  65 E6        30.20S                  
ORLANDO EXEC   SUNNY     84  73  69 VRB3      30.20S                  
LEESBURG       SUNNY     83  73  72 S5        30.21R                  
THE VILLAGES     N/A    N/A N/A N/A W7        30.09S                  
SANFORD        SUNNY     81  71  71 CALM      30.19F                  
DELAND           N/A     82  73  74 CALM      30.21R                  
NEW SMYRNA BCH MOSUNNY   82  72  69 NE5       30.21S                  
ORMOND BEACH   MOSUNNY   81  73  78 CALM      30.19S                  
WINTER HAVEN   SUNNY     84  70  62 SW5       30.21S                  
KISSIMMEE      SUNNY     84  72  65 S7        30.20S                  
OKEECHOBEE     PTSUNNY   79  72  78 CALM      30.21S                  
TAMPA          MOSUNNY   86  74  67 S6        30.19R                  
$$
...NORTHERN FLORIDA...
  
CITY           SKY/WX    TMP DP  RH WIND       PRES   REMARKS
PALM COAST     PTSUNNY   82  73  74 N5        30.19R                  
ST AUGUSTINE   MOSUNNY   83  72  69 N5        30.20R                  
OCALA          MOSUNNY   84  73  70 W7        30.19S                  
GAINESVILLE    SUNNY     85  70  60 NW10      30.20R                  
JACKSONVILLE   MOSUNNY   82  70  66 NW10      30.18F                  
TALLAHASSEE    PTSUNNY   83  71  67 VRB7      30.20S                  
$$
...ALONG THE SOUTHEAST COAST TO THE KEYS...
  
CITY           SKY/WX    TMP DP  RH WIND       PRES   REMARKS
STUART         MOSUNNY   82  70  65 CALM      30.20S                  
WEST PALM BCH  CLOUDY    86  74  67 SE6       30.19S                  
MIAMI          PTSUNNY   86  73  65 MISG      30.18R                  
KEY WEST       PTSUNNY   88  78  72 SE8       30.17R HX 101           
$$
...MARINE REPORTS...
  
STATION/POSITION TIME  TEMP    WIND        PRES    WAVE   SWELL
                       AIR SEA DIR/SP/G            HT/PER HT/PER/DIR
                 (UTC) (F)     (DEG/KT/KT) (MB)    (FT/S) (FT/S/D)
ST AUGUSTINE FP  1500   73 71  120/  5/  5 1023.3R
20NM E CAPE CANA 1450   80 81  270/  4/  6 1022.7R   2/ 9   2/100/ 9
120 E NEW SMYRNA 1450   83 84  210/  4/  6 1022.9R   3/ 9   3/130/ 9
TRIDENT PIER     1448   84 76  350/  3/  5 1022.8F
SEBASTIAN INLET  1500   80     340/  3     1023.0
4NM E PORT CANAV 1410      78                N/A     2/ 9
6NM NE FPR INLET 1451      81                N/A     1/ 8
SETTLEMENT PT GB 1500   85     190/  7/  9 1023.2R
$$
 

 

Link to: East Central Florida Hourly Weather Roundup


USA.gov is the U.S. government's official web portal to all federal, state and local government web resources and services.